星链-5164 (STARLINK-5164 )
导读
STARLINK-5164是美国SpaceX星链互联网卫星星座中的一颗卫星,于2022年10月28日发射入轨,归属美国SpaceX公司。它作为星链组网卫星之一,承担着为全球提供低延迟、高速率宽带互联网服务的任务,助力星链完成全球覆盖的组网布局,服务包括偏远地区通信、海上及航空移动网络等多元场景。
Basic Information
目录编号:
54178
目录名称:
STARLINK-5164
国际标识:
2022-141X
轨道中心:
EARTH
卫星名称:
星链-5164
卫星全名:
星链-5164 (STARLINK-5164 )
卫星状态:
在轨 (已飞行1415 天)
发射日期:
2022-10-28 UTC
国别 :
美国
(US)
星等 :
--
This satellite is enrolled in the Space Conjunction Data Service (SCDS) and the current flight risk assessment level is: High Risk
Orbit Information
| 数据来源 | 国际轨道数据 | AOE轨道数据 |
| 星历时间 | 2026-09-12T13:26:41+0800 7小时前 查看轨道信息 | 2026-09-10T23:00:00+0800 1天前 查看轨道信息 |
| 半长轴 | 6840.854km | 6840.878km |
| 偏心率 | 0.0001216 | 0.000108 |
| 轨道倾角 | 53.159° | 53.159° |
| 近地点辐角 | 88.901° | 77.541° |
| 升交点赤经 | 232.395° | 239.887° |
| 平近点角 | 271.213° | 69.185° |
| 近地点 | 461.885km | 462.002km |
| 远地点 | 463.549km | 463.48km |
| 周期 | 93.848分钟 | 93.849分钟 |
| 每日圈数 | 15.343957 | 15.343874 |
Detailed Information
固有亮度:
5
最大亮度:
2.5
卫星平台:
Starlink v1.5
覆盖范围:
全球
运营商:
太空探索技术公司
运营商所在国:
美国
制造商(研发单位):
太空探索技术公司
制造商所在国:
美国
使用方式:
暂无
Satellite Introduction
星链(Starlink)计划是由太空探索技术公司(SpaceX)提出的一个巨型低轨卫星互联网星座项目,计划在2019年至2024年间在太空搭建由约1.2万颗卫星组成的“星链”网络,其中1584颗将部署在地球上空550千米处的近地轨道,并从2020年开始工作。该卫星仍在工作。
2D Orbit Map
3D Orbit Map
Orbit Altitude Analysis Chart
Orbit Inclination Analysis Chart
Orbit Comprehensive Analysis Chart
View Comprehensive ChartConjunction Data List
| Event ID | Objects | TCA | Miss Dist (km) | Collision Risk Probability | Collision Risk Index (CRI) | Action |
|---|---|---|---|---|---|---|
| CDM_260914-013705-417806-612121 |
STARLINK-5164
(54178)
STARLINK-35631
(66121) | 2026-09-14T 01:37:55+0000 |
0.240 km
中距离 | 3.212471E-4 高风险 | 0.85 | |
| CDM_260914-070005-417806-243921 |
STARLINK-5164
(54178)
STARLINK-32709
(62439) | 2026-09-14T 07:00:53+0000 |
0.458 km
远距离 | 1.305586E-4 高风险 | 0.77 | |
| CDM_260914-175405-417806-282821 |
STARLINK-5164
(54178)
STARLINK-32727
(62828) | 2026-09-14T 17:54:37+0000 |
0.635 km
远距离 | 7.256962E-5 中风险 | 0.72 | |
| CDM_260913-231705-417806-612121 |
STARLINK-5164
(54178)
STARLINK-35631
(66121) | 2026-09-13T 23:17:13+0000 |
0.498 km
远距离 | 6.655128E-5 中风险 | 0.71 | |
| CDM_260913-235805-417806-243921 |
STARLINK-5164
(54178)
STARLINK-32709
(62439) | 2026-09-13T 23:58:50+0000 |
0.933 km
远距离 | 1.563678E-5 中风险 | 0.59 | |
| CDM_260914-013005-417806-564621 |
STARLINK-5164
(54178)
STARLINK-35183
(65646) | 2026-09-14T 01:30:13+0000 |
1.235 km
极远距离 | 7.863993E-6 低风险 | 0.53 | |
| CDM_260913-235605-417806-564621 |
STARLINK-5164
(54178)
STARLINK-35183
(65646) | 2026-09-13T 23:56:26+0000 |
1.269 km
极远距离 | 7.164693E-6 低风险 | 0.52 | |
| CDM_260914-074405-417806-282821 |
STARLINK-5164
(54178)
STARLINK-32727
(62828) | 2026-09-14T 07:44:59+0000 |
1.844 km
极远距离 | 2.311266E-6 低风险 | 0.42 | |
| CDM_260914-013205-417806-243921 |
STARLINK-5164
(54178)
STARLINK-32709
(62439) | 2026-09-14T 01:32:37+0000 |
2.128 km
极远距离 | 1.241797E-6 低风险 | 0.37 | |
| CDM_260914-110805-343005-417821 |
STARLINK-4538
(53430)
STARLINK-5164
(54178) | 2026-09-14T 11:08:21+0000 |
2.969 km
极远距离 | 1.045554E-6 低风险 | 0.35 |
Miss Distance Evolution Trend with All Objects
Collision Probability Evolution Trend with All Objects

